[[{"header":{"parameterUnit":"m.s-1","parameterCategory":2,"la1":30.2992,"la2":30.254,"lo1":-89.0895,"lo2":-89.0443,"dy":0.0025,"dx":0.0025,"nx":19,"ny":19,"refTime":"2026-03-27T09:00:00:Z","depth":"0","parameterNumber":2,"parameterNumberName":"U-component_of_CURRENTS"},"data":[0,0,0,0.2573,0.2573,0.2566,0.2565,0.2492,0.2492,0,0,0,0,0,0,0,0,0,0,0,0.2551,0.255,0.2573,0.2573,0.2566,0.2565,0.2492,0.2492,0,0,0,0,0,0,0,0,0,0,0,0.2551,0.255,0.255,0.2573,0.2566,0.2565,0.2493,0.2509,0,0,0,0,0,0,0,0,0,0,0.2522,0.2517,0.2551,0.255,0.2574,0.2566,0.2565,0.251,0.2508,0.2485,0,0.2481,0,0.2504,0.2487,0.2487,0,0,0,0.2551,0.2519,0.2527,0.255,0.2574,0.2566,0.2563,0.2509,0.2506,0.2481,0.248,0.2479,0.2503,0.2487,0.2487,0.2468,0.2468,0,0,0.2552,0.2538,0.2529,0.2525,0.2568,0.2563,0.2563,0.2508,0.2496,0.248,0.2478,0.2502,0.2487,0.2486,0.2468,0.2468,0,0,0,0.2568,0.2538,0.2548,0.2527,0.2541,0.2564,0.2563,0.2498,0.2504,0.2477,0.2501,0.2486,0.2485,0.2467,0.2468,0.247,0,0,0,0.2567,0.255,0.2548,0.2539,0.2543,0.253,0.2554,0.2506,0.2502,0.2501,0.2486,0.2485,0.2467,0.2468,0.2469,0.2478,0,0,0,0.2552,0.2549,0.2549,0.2538,0.255,0.2532,0.2533,0.2506,0.2517,0.2487,0.2485,0.2467,0.2467,0.2468,0.2476,0.2477,0,0,0,0.2537,0.2519,0.2548,0.2533,0.255,0.254,0.2534,0.2517,0.2491,0.2486,0.2467,0.2468,0.2468,0.2476,0.2477,0.2462,0.2464,0,0,0.2506,0.2514,0.2507,0.2535,0.2522,0.2539,0.2522,0.2492,0.2496,0.2476,0.2476,0.2469,0.2476,0.2477,0.25,0.25,0,0,0,0.2493,0.2481,0.2484,0.2485,0.2496,0.2506,0.2491,0.2499,0.2498,0.2491,0.2482,0.2487,0.2487,0.2477,0.2478,0.2272,0.2471,0.2471,0.2471,0.2403,0.243,0.2413,0.244,0.2444,0.2472,0.2485,0.2497,0.2485,0.2504,0.2498,0.2514,0.2505,0.2505,0.2292,0.2504,0.2504,0.2504,0.2504,0.2343,0.2336,0.2368,0.2366,0.2402,0.24,0.2461,0.2483,0.2518,0.2516,0.2516,0.2492,0.2505,0.2278,0.2505,0.2505,0.2505,0.2505,0.2505,0.2276,0.2282,0.2288,0.2301,0.2321,0.2372,0.2419,0.248,0.2517,0.2538,0.2517,0.2517,0.2309,0.2528,0.2528,0.2528,0.2528,0.2528,0.2528,0.2214,0.2225,0.2222,0.2242,0.2255,0.23,0.2401,0.2449,0.2506,0.2528,0.2528,0.2289,0.2522,0.2511,0.2529,0.2529,0.2529,0.2529,0.2529,0.2167,0.217,0.2162,0.2167,0.22,0.2215,0.2323,0.2421,0.2471,0.2492,0.2264,0.2522,0.252,0.2519,0.2509,0.2526,0.2526,0.2526,0.2526,0.2135,0.2136,0.212,0.2119,0.2133,0.2177,0.2207,0.2294,0.2269,0.2177,0.2144,0.2097,0.2106,0.2076,0.2085,0.2065,0.1968,0.1967,0.1966,0.2125,0.2114,0.2091,0.2082,0.2098,0.2124,0.2122,0.2079,0.197,0.192,0.1853,0.1877,0.1785,0.1817,0.1755,0.1785,0.1748,0,0]},{"header":{"parameterUnit":"m.s-1","parameterCategory":2,"la1":30.2992,"la2":30.254,"lo1":-89.0895,"lo2":-89.0443,"dy":0.0025,"dx":0.0025,"nx":19,"ny":19,"refTime":"2026-03-27T09:00:00:Z","depth":"0","parameterNumber":3,"parameterNumberName":"V-component_of_CURRENTS"},"data":[0,0,0,-0.0131,-0.0131,-0.0093,-0.0093,-0.0021,-0.002,0,0,0,0,0,0,0,0,0,0,0,-0.0137,-0.0137,-0.0131,-0.0131,-0.0093,-0.0093,-0.0021,-0.002,0,0,0,0,0,0,0,0,0,0,0,-0.0137,-0.0137,-0.0137,-0.0131,-0.0093,-0.0093,-0.0021,-0.0054,0,0,0,0,0,0,0,0,0,0,-0.0092,-0.0106,-0.0137,-0.0137,-0.013,-0.0093,-0.0093,-0.0055,-0.0051,-0.0033,0,-0.0025,0,-0.0026,-0.0015,-0.0015,0,0,0,-0.0124,-0.0109,-0.0099,-0.0137,-0.013,-0.0094,-0.0108,-0.0053,-0.0049,-0.0027,-0.0025,-0.0022,-0.0025,-0.0015,-0.0014,0.0077,0.0077,0,0,-0.0126,-0.013,-0.0102,-0.0096,-0.0118,-0.011,-0.0107,-0.0051,-0.0045,-0.0024,-0.0021,-0.0024,-0.0014,-0.0014,0.0077,0.0077,0,0,0,-0.0136,-0.0131,-0.0122,-0.0099,-0.0097,-0.0109,-0.0106,-0.0047,-0.0044,-0.002,-0.0023,-0.0014,-0.0013,0.0076,0.0077,0.0133,0,0,0,-0.0137,-0.0138,-0.0123,-0.0125,-0.0098,-0.0076,-0.0103,-0.0048,-0.0042,-0.0023,-0.0014,-0.0012,0.0076,0.0076,0.013,0.0176,0,0,0,-0.0139,-0.0138,-0.0133,-0.0125,-0.0113,-0.0077,-0.0071,-0.0047,-0.0044,-0.0015,-0.0012,0.0075,0.0076,0.0128,0.0171,0.0212,0,0,0,-0.0145,-0.0116,-0.0133,-0.0099,-0.0114,-0.0063,-0.0071,-0.0034,-0.0007,-0.0013,0.0076,0.0077,0.0127,0.0168,0.0209,0.0318,0.0341,0,0,-0.0108,-0.0112,-0.009,-0.0104,-0.0047,-0.0067,0.0003,0.0027,0.0016,0.0059,0.0061,0.0131,0.0171,0.0211,0.0381,0.0402,0,0,0,-0.0077,-0.0058,-0.0044,-0.0019,0.0002,0.0039,0.005,0.0068,0.0105,0.0035,0.0138,0.0162,0.0185,0.0245,0.0261,0.0246,0.0082,0.0082,0.0082,-0.0019,-0.001,0.0038,0.0057,0.0088,0.012,0.0161,0.0185,0.0158,0.0182,0.0211,0.029,0.0354,0.0368,0.035,0.0205,0.0205,0.0205,0.0205,0.0055,0.0085,0.01,0.0146,0.0173,0.0227,0.028,0.0276,0.0336,0.0286,0.0305,0.0307,0.039,0.0364,0.0209,0.0208,0.0208,0.0208,0.0207,0.0097,0.0113,0.0132,0.0197,0.0263,0.0299,0.0393,0.0403,0.0398,0.0427,0.0469,0.0469,0.0443,0.0418,0.0419,0.0419,0.0419,0.042,0.042,0.0129,0.0151,0.0198,0.0259,0.0308,0.0386,0.046,0.0511,0.0562,0.0562,0.0562,0.0486,0.0355,0.0343,0.0426,0.0425,0.0424,0.0423,0.0423,0.018,0.0185,0.0257,0.0303,0.0417,0.0522,0.0577,0.0706,0.074,0.079,0.0715,0.0635,0.0631,0.0618,0.0613,0.0761,0.0761,0.0761,0.0761,0.0208,0.0219,0.0306,0.0385,0.0492,0.0585,0.0783,0.0921,0.0937,0.0934,0.0843,0.081,0.0797,0.0798,0.0781,0.0776,0.0962,0.0962,0.0962,0.0241,0.0263,0.0325,0.0398,0.0518,0.0659,0.0879,0.1127,0.1112,0.0962,0.08,0.0792,0.0727,0.0708,0.0691,0.0669,0.0653,0,0]}],[{"header":{"parameterUnit":"m.s-1","parameterCategory":2,"la1":30.2992,"la2":30.254,"lo1":-89.0895,"lo2":-89.0443,"dy":0.0025,"dx":0.0025,"nx":19,"ny":19,"refTime":"2026-03-27T09:00:00:Z","depth":"2","parameterNumber":2,"parameterNumberName":"U-component_of_CURRENTS"},"data":[0,0,0,0.1466,0.1467,0.1525,0.1526,0.1603,0.1604,0,0,0,0,0,0,0,0,0,0,0,0.1451,0.1452,0.1466,0.1467,0.1525,0.1526,0.1603,0.1604,0,0,0,0,0,0,0,0,0,0,0,0.1451,0.1452,0.1452,0.1467,0.1525,0.1526,0.1603,0.1561,0,0,0,0,0,0,0,0,0,0,0.1506,0.149,0.1451,0.1452,0.1468,0.1525,0.1526,0.156,0.1564,0.1574,0,0.1578,0,0.1585,0.1608,0.1608,0,0,0,0.148,0.1486,0.1495,0.1452,0.1468,0.1525,0.1503,0.1562,0.1567,0.1579,0.158,0.1582,0.1586,0.1608,0.1608,0.1677,0.1677,0,0,0.1477,0.147,0.1492,0.1498,0.1478,0.1501,0.1504,0.1565,0.1572,0.158,0.1584,0.1588,0.1608,0.1609,0.1677,0.1677,0,0,0,0.1459,0.1468,0.1476,0.1495,0.1501,0.1502,0.1506,0.1569,0.157,0.1585,0.1588,0.1609,0.161,0.1676,0.1677,0.1677,0,0,0,0.1458,0.1456,0.1475,0.1472,0.15,0.1536,0.1509,0.1567,0.1573,0.1588,0.1609,0.161,0.1676,0.1676,0.1676,0.1693,0,0,0,0.145,0.1455,0.1459,0.1471,0.1489,0.1535,0.154,0.1568,0.1575,0.1608,0.161,0.1676,0.1676,0.1676,0.1692,0.1692,0,0,0,0.1445,0.1449,0.1459,0.1466,0.1489,0.1516,0.154,0.1574,0.1602,0.1609,0.1676,0.1677,0.1676,0.1691,0.1691,0.1603,0.1599,0,0,0.1445,0.1449,0.1452,0.1462,0.1481,0.1509,0.1546,0.1596,0.1617,0.1658,0.1659,0.1677,0.1692,0.1692,0.1644,0.1638,0,0,0,0.1448,0.1452,0.1459,0.1474,0.1495,0.1527,0.1575,0.1603,0.1657,0.1634,0.1691,0.1701,0.1701,0.1646,0.1643,0.168,0.168,0.168,0.168,0.1439,0.1451,0.1456,0.1477,0.1499,0.1552,0.1588,0.1637,0.166,0.169,0.1711,0.1729,0.1671,0.1667,0.1714,0.1714,0.1714,0.1714,0.1714,0.1428,0.1422,0.145,0.1461,0.1497,0.1536,0.1614,0.165,0.1721,0.1731,0.173,0.1662,0.1663,0.1714,0.1714,0.1714,0.1714,0.1714,0.1714,0.1406,0.1402,0.1416,0.144,0.1477,0.154,0.1592,0.1666,0.1726,0.1746,0.1687,0.1686,0.1724,0.1746,0.1746,0.1746,0.1746,0.1747,0.1747,0.1367,0.1379,0.1385,0.1422,0.1438,0.1498,0.1596,0.1637,0.1679,0.1698,0.1696,0.174,0.1739,0.1727,0.1748,0.1748,0.1747,0.1747,0.1747,0.1323,0.1338,0.1344,0.1356,0.1394,0.1393,0.1498,0.1534,0.1595,0.1588,0.1656,0.1657,0.165,0.1652,0.1639,0.1636,0.1636,0.1636,0.1636,0.1285,0.1298,0.1287,0.129,0.131,0.1337,0.1283,0.1294,0.1399,0.1428,0.1437,0.1393,0.1403,0.138,0.1388,0.1369,0.1295,0.1295,0.1294,0.1247,0.1258,0.1231,0.1245,0.1255,0.1244,0.1117,0.0994,0.1095,0.128,0.1366,0.1615,0.1574,0.158,0.1564,0.1569,0.1546,0,0]},{"header":{"parameterUnit":"m.s-1","parameterCategory":2,"la1":30.2992,"la2":30.254,"lo1":-89.0895,"lo2":-89.0443,"dy":0.0025,"dx":0.0025,"nx":19,"ny":19,"refTime":"2026-03-27T09:00:00:Z","depth":"2","parameterNumber":3,"parameterNumberName":"V-component_of_CURRENTS"},"data":[0,0,0,0.0162,0.0162,0.0163,0.0163,0.0162,0.0162,0,0,0,0,0,0,0,0,0,0,0,0.0157,0.0157,0.0162,0.0162,0.0163,0.0163,0.0162,0.0162,0,0,0,0,0,0,0,0,0,0,0,0.0157,0.0157,0.0157,0.0162,0.0163,0.0163,0.0162,0.016,0,0,0,0,0,0,0,0,0,0,0.0159,0.0158,0.0157,0.0157,0.0162,0.0163,0.0163,0.016,0.016,0.0163,0,0.0164,0,0.0169,0.0162,0.0163,0,0,0,0.0156,0.0158,0.0159,0.0157,0.0163,0.0163,0.0161,0.016,0.0161,0.0164,0.0164,0.0164,0.0169,0.0163,0.0163,0.0199,0.0199,0,0,0.0156,0.0156,0.0159,0.0159,0.0164,0.0161,0.0161,0.016,0.0161,0.0164,0.0164,0.0169,0.0163,0.0163,0.0199,0.0199,0,0,0,0.016,0.0156,0.0156,0.0159,0.0163,0.0161,0.0161,0.0161,0.0161,0.0165,0.0169,0.0163,0.0163,0.0198,0.0199,0.0246,0,0,0,0.016,0.0159,0.0156,0.0156,0.0163,0.0163,0.0161,0.0161,0.0161,0.0169,0.0163,0.0163,0.0198,0.0199,0.0244,0.0283,0,0,0,0.0156,0.0159,0.0159,0.0156,0.016,0.0163,0.0163,0.0161,0.0164,0.0163,0.0163,0.0198,0.0198,0.0242,0.0279,0.0308,0,0,0,0.0156,0.0169,0.0159,0.018,0.016,0.0185,0.0163,0.0174,0.0175,0.0163,0.0198,0.0199,0.0241,0.0277,0.0305,0.0362,0.0377,0,0,0.0176,0.0172,0.0186,0.0177,0.0213,0.0185,0.0221,0.0207,0.0188,0.0196,0.0197,0.0245,0.0279,0.0307,0.0408,0.0423,0,0,0,0.0195,0.0205,0.0215,0.0231,0.024,0.0258,0.024,0.0237,0.0239,0.0194,0.0248,0.0269,0.0284,0.0314,0.0325,0.0203,0.0202,0.0202,0.0202,0.0218,0.023,0.0264,0.0281,0.0298,0.0306,0.0318,0.031,0.0279,0.0287,0.0308,0.0368,0.0399,0.0408,0.03,0.03,0.03,0.03,0.0301,0.0261,0.0284,0.0304,0.034,0.0358,0.0384,0.0398,0.0382,0.0401,0.0361,0.0373,0.0365,0.0424,0.0304,0.0304,0.0303,0.0303,0.0302,0.0302,0.028,0.0294,0.0316,0.0371,0.042,0.0441,0.0508,0.0491,0.0458,0.0474,0.049,0.049,0.0401,0.0471,0.0471,0.0472,0.0472,0.0472,0.0472,0.0288,0.0314,0.0356,0.041,0.0456,0.0523,0.0573,0.0597,0.0596,0.0565,0.0565,0.0425,0.042,0.0411,0.0477,0.0476,0.0476,0.0475,0.0475,0.0316,0.0325,0.0391,0.0437,0.055,0.0656,0.0692,0.0756,0.0749,0.0755,0.0611,0.0606,0.0599,0.059,0.0586,0.0693,0.0693,0.0693,0.0693,0.0331,0.034,0.0432,0.0515,0.0625,0.0721,0.0857,0.0869,0.0809,0.0744,0.0742,0.0709,0.07,0.0694,0.0683,0.0678,0.081,0.081,0.081,0.0358,0.0381,0.0449,0.0531,0.0663,0.0806,0.0936,0.0924,0.0809,0.081,0.0717,0.0709,0.0652,0.0641,0.0622,0.0608,0.0596,0,0]}],[{"header":{"parameterUnit":"m.s-1","parameterCategory":2,"la1":30.2992,"la2":30.254,"lo1":-89.0895,"lo2":-89.0443,"dy":0.0025,"dx":0.0025,"nx":19,"ny":19,"refTime":"2026-03-27T09:00:00:Z","depth":"4","parameterNumber":2,"parameterNumberName":"U-component_of_CURRENTS"},"data":[0,0,0,0.067,0.0671,0.076,0.0761,0.0858,0.0859,0,0,0,0,0,0,0,0,0,0,0,0.0658,0.0659,0.067,0.0671,0.076,0.0761,0.0858,0.0859,0,0,0,0,0,0,0,0,0,0,0,0.0658,0.0659,0.066,0.0672,0.076,0.0761,0.0858,0.0799,0,0,0,0,0,0,0,0,0,0,0.0716,0.0697,0.0658,0.066,0.0672,0.076,0.0761,0.0796,0.0803,0.0808,0,0.0828,0,0.083,0.0863,0.0864,0,0,0,0.0688,0.0692,0.0714,0.066,0.0673,0.076,0.0725,0.08,0.0807,0.0816,0.0829,0.0833,0.0831,0.0864,0.0864,0.0933,0.0933,0,0,0.0683,0.0675,0.071,0.0719,0.0703,0.0722,0.0727,0.0805,0.0815,0.083,0.0835,0.0833,0.0864,0.0865,0.0933,0.0933,0,0,0,0.0658,0.0671,0.0693,0.0715,0.0724,0.0724,0.073,0.0812,0.082,0.0836,0.0834,0.0865,0.0866,0.0932,0.0933,0.0964,0,0,0,0.0656,0.0655,0.0691,0.0686,0.0723,0.0769,0.0736,0.0815,0.0823,0.0834,0.0865,0.0866,0.0932,0.0932,0.0962,0.0963,0,0,0,0.0653,0.0654,0.0667,0.0686,0.0714,0.0767,0.078,0.0818,0.0821,0.0864,0.0866,0.0932,0.0932,0.0961,0.0962,0.0987,0,0,0,0.0637,0.0651,0.0667,0.0685,0.0713,0.0761,0.078,0.0833,0.0872,0.0865,0.0932,0.0933,0.0961,0.0961,0.0985,0.0833,0,0,0,0.064,0.0652,0.066,0.0676,0.0703,0.0749,0.0798,0.0863,0.0879,0.0908,0.091,0.0963,0.0962,0.0986,0.0867,0,0,0,0,0.065,0.0661,0.0673,0.0695,0.0731,0.0786,0.0844,0.0873,0.0933,0.0901,0.0965,0.0963,0.0978,0.0886,0.0935,0.0935,0.0935,0.0935,0.0935,0.0657,0.0666,0.0682,0.0709,0.0746,0.0821,0.0873,0.0923,0.0943,0.0977,0.0992,0.1033,0.0936,0.1,0.1001,0.1001,0.1001,0.1001,0.1001,0.0652,0.0654,0.0684,0.0705,0.0763,0.0821,0.0909,0.0952,0.1019,0.1017,0.1031,0.0927,0.1004,0.1004,0.1003,0.1003,0.1003,0.1002,0.1002,0.0641,0.0639,0.0665,0.0697,0.0762,0.0841,0.0897,0.0977,0.1039,0.1067,0.0979,0.1053,0.1047,0.1088,0.1088,0.1088,0.1089,0.1089,0.1089,0.0612,0.0631,0.0648,0.0694,0.0727,0.0794,0.0907,0.0945,0.1027,0.0988,0.1084,0.1062,0.1059,0.1052,0.1091,0.109,0.109,0.109,0.109,0.0567,0.0598,0.0607,0.0633,0.0685,0.0714,0.0833,0.0877,0.0914,0.0915,0.0945,0.0951,0.0924,0.0925,0.0913,0.0911,0.0909,0.0907,0,0.0539,0.0554,0.0564,0.0574,0.0585,0.0654,0.0663,0.0727,0.0805,0.0774,0.0919,0.0951,0.0955,0.0922,0.092,0.0903,0,0,0,0.0501,0.0516,0.0504,0.0525,0.0526,0.0563,0.0655,0.0649,0.0794,0.0784,0.0862,0.0874,0.099,0.1097,0.1071,0.1068,0.1056,0,0]},{"header":{"parameterUnit":"m.s-1","parameterCategory":2,"la1":30.2992,"la2":30.254,"lo1":-89.0895,"lo2":-89.0443,"dy":0.0025,"dx":0.0025,"nx":19,"ny":19,"refTime":"2026-03-27T09:00:00:Z","depth":"4","parameterNumber":3,"parameterNumberName":"V-component_of_CURRENTS"},"data":[0,0,0,0.021,0.021,0.0219,0.0219,0.0215,0.0215,0,0,0,0,0,0,0,0,0,0,0,0.0205,0.0205,0.021,0.021,0.0219,0.0219,0.0215,0.0215,0,0,0,0,0,0,0,0,0,0,0,0.0205,0.0205,0.0205,0.021,0.0219,0.0219,0.0215,0.0211,0,0,0,0,0,0,0,0,0,0,0.0204,0.0205,0.0205,0.0205,0.021,0.0219,0.0219,0.0211,0.0211,0.0208,0,0.0211,0,0.0215,0.0215,0.0215,0,0,0,0.0206,0.0205,0.0206,0.0205,0.021,0.0219,0.0214,0.0211,0.0212,0.0208,0.0211,0.0211,0.0215,0.0215,0.0215,0.0225,0.0225,0,0,0.0206,0.0207,0.0206,0.0207,0.0215,0.0214,0.0214,0.0212,0.0213,0.0211,0.0211,0.0215,0.0215,0.0215,0.0225,0.0225,0,0,0,0.0207,0.0206,0.0208,0.0207,0.0211,0.0214,0.0215,0.0213,0.0214,0.0211,0.0215,0.0215,0.0215,0.0225,0.0225,0.0259,0,0,0,0.0206,0.0207,0.0208,0.0208,0.0211,0.0215,0.0217,0.0214,0.0214,0.0215,0.0215,0.0214,0.0225,0.0225,0.0258,0.0282,0,0,0,0.0204,0.0207,0.0209,0.0208,0.0214,0.0215,0.0216,0.0214,0.0216,0.0215,0.0214,0.0225,0.0225,0.0257,0.028,0.0302,0,0,0,0.0203,0.0213,0.0209,0.0224,0.0214,0.0231,0.0216,0.0225,0.0226,0.0215,0.0225,0.0225,0.0257,0.0278,0.0301,0.0299,0,0,0,0.0216,0.0215,0.0225,0.0222,0.0246,0.0229,0.0251,0.0243,0.0229,0.0223,0.0224,0.0259,0.028,0.0302,0.0319,0,0,0,0,0.023,0.0238,0.0244,0.0258,0.0264,0.0276,0.0265,0.0258,0.0255,0.0231,0.0256,0.0269,0.0282,0.0275,0.0227,0.0227,0.0227,0.0227,0.0227,0.0242,0.0252,0.0274,0.0289,0.0301,0.0305,0.0311,0.0298,0.0278,0.0281,0.0294,0.0333,0.0327,0.0286,0.0286,0.0287,0.0287,0.0287,0.0287,0.0265,0.0278,0.0298,0.0324,0.0337,0.0356,0.0358,0.0347,0.035,0.0322,0.0333,0.0309,0.029,0.029,0.0289,0.0289,0.0288,0.0288,0.0288,0.0269,0.0278,0.03,0.0342,0.0381,0.0398,0.0436,0.0419,0.0393,0.0401,0.0391,0.036,0.036,0.0405,0.0405,0.0405,0.0405,0.0405,0.0406,0.0261,0.0285,0.032,0.0366,0.0406,0.0455,0.0484,0.049,0.0462,0.0438,0.0415,0.0373,0.0369,0.0367,0.0409,0.0408,0.0408,0.0408,0.0407,0.0266,0.0282,0.0335,0.0377,0.047,0.0509,0.0539,0.0537,0.054,0.0517,0.0453,0.045,0.044,0.0435,0.0434,0.0498,0.0498,0.0498,0,0.0268,0.0278,0.0357,0.0431,0.0506,0.0546,0.0573,0.0576,0.053,0.0518,0.0529,0.0457,0.0454,0.0441,0.0437,0.0437,0,0,0,0.0277,0.0301,0.0358,0.0435,0.0527,0.0562,0.0582,0.0574,0.0534,0.0535,0.0502,0.0501,0.0465,0.0418,0.0395,0.0391,0.0386,0,0]}]]